User: anonymous
Location: Unspecified
(0.0000°N, 0.0000°E)
Time: 10:08:11
(UTC+00:00)
Language:

FALCON 9 R/B - Orbit

View from above orbital plane
View from above orbital plane
View from above satellite
View from above satellite

Ground track
Ground track

The orbit data is extracted from the following two-line orbital elements,

1 37253U 10066K   14231.98925787  .00008002  00000-0  90738-3 0  1463
2 37253 034.5060 074.3796 4355365 149.9642 244.4626 06.74765577 89865
Epoch (UTC): 19 August 2014 23:44:31
Eccentricity: 0.4355365
inclination: 34.5060°
perigee height: 299 km
apogee height: 10603 km
right ascension of ascending node: 74.3796°
argument of perigee: 149.9642°
revolutions per day: 6.74765577
mean anomaly at epoch: 244.4626°
orbit number at epoch: 8986

The dashed part of the orbit path shows where the satellite is in the earth's shadow,  

DLR